Montevideo, MN

10:26 AM CDT on July 22, 2017 (GMT -0500)
Montevideo-Chippewa County

Weather History for KMVE - February, 2014

Change the Weather History Date:

Friday, February 14, 2014

  Actual Average Record
Temperature  
Mean Temperature 4 °F -  
Max Temperature 12 °F 26 °F 48 °F (1999)
Min Temperature -5 °F 8 °F -14 °F (1951)
Degree Days  
Heating Degree Days 62    
Moisture  
Dew Point -2 °F    
Average Humidity 79    
Maximum Humidity 92    
Minimum Humidity 67    
Precipitation  
Precipitation 0.00 in - - ()
Sea Level Pressure  
Sea Level Pressure 29.98 in    
Wind  
Wind Speed 10 mph (North)    
Max Wind Speed 18 mph    
Max Gust Speed 25 mph    
Visibility 10 miles    
Events      
Averages and records for this station are not official NWS values.
T = Trace of Precipitation, MM = Missing Value Source: NWS Daily Summary

Daily Weather History Graph

Daily Weather History Graph

Search for Another Location

Airport or City:

Trip Planner

Search our weather history database for the weather conditions in past years. The results will help you decide how hot, cold, wet, or windy it might be!

Date:

Astronomy

Feb. 14, 2014 Rise Set
Actual Time 7:25 AM CST 5:49 PM CST
Civil Twilight 6:54 AM CST 6:19 PM CST
Nautical Twilight 6:20 AM CST 6:54 PM CST
Astronomical Twilight 5:46 AM CST 7:28 PM CST
Moon 5:56 PM CST (2/14) 6:51 AM CST (2/14)
Length of Visible Light 11h 24m
Length of Day
10h 24m
Full, 100% of the Moon is Illuminated
Feb 14
Full
Feb 14
Full
Feb 22
Last Quarter
Mar 1
New
Mar 8
First Quarter

Hourly Weather History & Observations

Time (CST) Temp. Windchill Dew Point Humidity Pressure Visibility Wind Dir Wind Speed Gust Speed Precip Events Conditions
12:14 AM 1.4 °F -13.5 °F -2.2 °F 85% 29.81 in 10.0 mi North 9.2 mph - N/A   Overcast
12:34 AM 1.4 °F -13.5 °F -2.2 °F 85% 29.81 in 10.0 mi North 9.2 mph - N/A   Overcast
12:53 AM 1.4 °F -13.5 °F -2.2 °F 85% 29.80 in 10.0 mi North 9.2 mph - N/A   Overcast
1:14 AM 1.4 °F -13.5 °F -2.2 °F 85% 29.80 in 10.0 mi NNE 9.2 mph - N/A   Mostly Cloudy
1:34 AM 1.4 °F -15.3 °F -2.2 °F 85% 29.81 in 10.0 mi North 11.5 mph - N/A   Overcast
1:53 AM 1.4 °F -16.1 °F -2.2 °F 85% 29.82 in 10.0 mi North 12.7 mph - N/A   Overcast
2:14 AM 1.4 °F -15.3 °F -2.2 °F 85% 29.82 in 10.0 mi NNE 11.5 mph - N/A   Overcast
2:34 AM 1.4 °F -16.9 °F -2.2 °F 85% 29.83 in 10.0 mi North 13.8 mph 19.6 mph N/A   Overcast
2:54 AM 1.4 °F -15.3 °F -2.2 °F 85% 29.84 in 10.0 mi North 11.5 mph - N/A   Overcast
3:14 AM 1.4 °F -14.5 °F -2.2 °F 85% 29.84 in 10.0 mi North 10.4 mph - N/A   Overcast
3:34 AM 1.4 °F -16.9 °F -2.2 °F 85% 29.85 in 10.0 mi North 13.8 mph 18.4 mph N/A   Overcast
3:54 AM 1.4 °F -16.1 °F -4.0 °F 78% 29.86 in 10.0 mi North 12.7 mph - N/A   Overcast
4:14 AM 1.4 °F -14.5 °F -4.0 °F 78% 29.87 in 10.0 mi North 10.4 mph - N/A   Mostly Cloudy
4:34 AM -0.4 °F -18.4 °F -4.0 °F 85% 29.88 in 10.0 mi North 12.7 mph - N/A   Scattered Clouds
4:54 AM -0.4 °F -17.6 °F -5.8 °F 78% 29.89 in 10.0 mi North 11.5 mph - N/A   Mostly Cloudy
5:14 AM -0.4 °F -19.2 °F -5.8 °F 78% 29.90 in 10.0 mi North 13.8 mph - N/A   Mostly Cloudy
5:34 AM -2.2 °F -19.9 °F -5.8 °F 85% 29.91 in 10.0 mi North 11.5 mph - N/A   Mostly Cloudy
5:54 AM -2.2 °F -19.9 °F -5.8 °F 85% 29.93 in 10.0 mi North 11.5 mph - N/A   Scattered Clouds
6:14 AM -2.2 °F -19.9 °F -7.6 °F 78% 29.93 in 10.0 mi North 11.5 mph - N/A   Clear
6:34 AM -2.2 °F -18.9 °F -7.6 °F 78% 29.94 in 10.0 mi North 10.4 mph 19.6 mph N/A   Scattered Clouds
6:54 AM -4.0 °F -21.2 °F -9.4 °F 78% 29.96 in 10.0 mi North 10.4 mph - N/A   Clear
7:14 AM -5.8 °F -26.0 °F -9.4 °F 84% 29.96 in 10.0 mi North 13.8 mph - N/A   Clear
7:34 AM -5.8 °F -24.4 °F -9.4 °F 84% 29.97 in 10.0 mi North 11.5 mph - N/A   Clear
7:54 AM -4.0 °F -21.2 °F -7.6 °F 85% 29.98 in 10.0 mi North 10.4 mph - N/A   Clear
8:14 AM -2.2 °F -18.9 °F -7.6 °F 78% 30.00 in 10.0 mi North 10.4 mph - N/A   Clear
8:33 AM -2.2 °F -21.5 °F -7.6 °F 78% 30.00 in 10.0 mi North 13.8 mph 18.4 mph N/A   Clear
8:54 AM -0.4 °F -17.6 °F -7.6 °F 72% 30.01 in 10.0 mi North 11.5 mph - N/A   Clear
9:14 AM -0.4 °F -16.7 °F -7.6 °F 72% 30.02 in 10.0 mi North 10.4 mph - N/A   Clear
9:34 AM 1.4 °F -13.5 °F -5.8 °F 72% 30.03 in 10.0 mi North 9.2 mph - N/A   Clear
9:54 AM 1.4 °F -16.1 °F -4.0 °F 78% 30.04 in 10.0 mi NNW 12.7 mph - N/A   Clear
10:14 AM 3.2 °F -13.1 °F -4.0 °F 72% 30.05 in 10.0 mi NNW 11.5 mph - N/A   Clear
10:34 AM 5.0 °F -11.6 °F -2.2 °F 72% 30.05 in 10.0 mi North 12.7 mph - N/A   Clear
10:54 AM 5.0 °F -13.0 °F -2.2 °F 72% 30.06 in 10.0 mi North 15.0 mph - N/A   Clear
11:14 AM 6.8 °F -10.0 °F -0.4 °F 72% 30.07 in 10.0 mi North 13.8 mph 17.3 mph N/A   Clear
11:34 AM 8.6 °F -7.7 °F 1.4 °F 73% 30.07 in 10.0 mi North 13.8 mph 18.4 mph N/A   Clear
11:54 AM 8.6 °F -7.7 °F 1.4 °F 73% 30.06 in 10.0 mi North 13.8 mph - N/A   Clear
12:14 PM 8.6 °F -8.3 °F 1.4 °F 73% 30.07 in 10.0 mi North 15.0 mph 18.4 mph N/A   Clear
12:34 PM 8.6 °F -8.9 °F 1.4 °F 73% 30.06 in 10.0 mi North 16.1 mph - N/A   Clear
12:54 PM 10.4 °F -7.7 °F 1.4 °F 67% 30.06 in 10.0 mi North 18.4 mph - N/A   Clear
1:14 PM 10.4 °F -7.2 °F 3.2 °F 73% 30.06 in 10.0 mi North 17.3 mph 25.3 mph N/A   Clear
1:34 PM 10.4 °F -6.6 °F 3.2 °F 73% 30.06 in 10.0 mi North 16.1 mph - N/A   Clear
1:54 PM 10.4 °F -5.4 °F 3.2 °F 73% 30.05 in 10.0 mi North 13.8 mph - N/A   Clear
2:14 PM 12.2 °F -3.7 °F 3.2 °F 67% 30.05 in 10.0 mi North 15.0 mph - N/A   Clear
2:34 PM 12.2 °F -4.8 °F 5.0 °F 73% 30.06 in 10.0 mi North 17.3 mph 20.7 mph N/A   Clear
2:54 PM 12.2 °F -2.5 °F 5.0 °F 73% 30.05 in 10.0 mi North 12.7 mph - N/A   Clear
3:14 PM 12.2 °F -3.1 °F 5.0 °F 73% 30.04 in 10.0 mi North 13.8 mph 19.6 mph N/A   Clear
3:34 PM 12.2 °F -1.8 °F 5.0 °F 73% 30.06 in 10.0 mi North 11.5 mph - N/A   Clear
3:54 PM 12.2 °F -2.5 °F 5.0 °F 73% 30.06 in 10.0 mi NNW 12.7 mph - N/A   Scattered Clouds
4:14 PM 12.2 °F -1.0 °F 5.0 °F 73% 30.06 in 10.0 mi North 10.4 mph - N/A   Scattered Clouds
4:34 PM 12.2 °F -0.2 °F 5.0 °F 73% 30.05 in 10.0 mi NNE 9.2 mph - N/A   Clear
4:54 PM 12.2 °F -0.2 °F 5.0 °F 73% 30.05 in 10.0 mi North 9.2 mph - N/A   Clear
5:14 PM 10.4 °F -0.4 °F 3.2 °F 73% 30.05 in 10.0 mi NNE 6.9 mph - N/A   Clear
5:34 PM 8.6 °F -2.6 °F 1.4 °F 73% 30.05 in 10.0 mi NNE 6.9 mph - N/A   Clear
5:54 PM 6.8 °F -2.0 °F 1.4 °F 79% 30.04 in 10.0 mi NE 4.6 mph - N/A   Clear
6:14 PM 6.8 °F - -0.4 °F 72% 30.05 in 10.0 mi Calm Calm - N/A   Clear
6:34 PM 5.0 °F -2.1 °F -0.4 °F 78% 30.06 in 10.0 mi WNW 3.5 mph - N/A   Clear
6:54 PM 5.0 °F -4.1 °F -0.4 °F 78% 30.07 in 10.0 mi WNW 4.6 mph - N/A   Clear
7:14 PM 5.0 °F -4.1 °F -0.4 °F 78% 30.06 in 10.0 mi NW 4.6 mph - N/A   Clear
7:34 PM 5.0 °F - -0.4 °F 78% 30.06 in 10.0 mi Calm Calm - N/A   Clear
7:54 PM 3.2 °F - -0.4 °F 85% 30.05 in 10.0 mi Calm Calm - N/A   Clear
8:14 PM 3.2 °F - -0.4 °F 85% 30.03 in 10.0 mi Calm Calm - N/A   Clear
8:34 PM 3.2 °F - -0.4 °F 85% 30.03 in 10.0 mi Calm Calm - N/A   Clear
8:54 PM 1.4 °F - -0.4 °F 92% 30.03 in 10.0 mi Calm Calm - N/A   Clear
9:14 PM 1.4 °F - -2.2 °F 85% 30.03 in 10.0 mi Calm Calm - N/A   Clear
9:33 PM 1.4 °F - -2.2 °F 85% 30.03 in 10.0 mi Calm Calm - N/A   Clear
9:54 PM 1.4 °F -6.2 °F -2.2 °F 85% 30.02 in 10.0 mi SSW 3.5 mph - N/A   Clear
10:13 PM 1.4 °F - -0.4 °F 92% 30.01 in 10.0 mi Calm Calm - N/A   Clear
10:32 PM 1.4 °F -6.2 °F -2.2 °F 85% 30.01 in 10.0 mi South 3.5 mph - N/A   Clear
10:54 PM -0.4 °F -13.4 °F -4.0 °F 85% 29.99 in 10.0 mi SSE 6.9 mph - N/A   Clear
11:13 PM -0.4 °F -14.7 °F -2.2 °F 92% 29.98 in 10.0 mi South 8.1 mph - N/A   Clear
11:34 PM 1.4 °F -8.3 °F -2.2 °F 85% 29.97 in 10.0 mi SSW 4.6 mph - N/A   Clear
11:54 PM -0.4 °F -13.4 °F -2.2 °F 92% 29.96 in 10.0 mi South 6.9 mph - N/A   Clear